Home   Weather   Port Hedland   Past weeks

Flag for Australia Past Weather in Port Hedland, Western Australia, Australia — Yesterday and Last 2 Weeks

Now
63 °F

Overcast.


Feels Like: 63 °F
Forecast: 72 / 75 °F
Wind: 8 mph from East

Location: Port Hedland Pardoo

Current Time: Sep 30, 2016 at 11:15:34 PM

Latest Report: Sep 30, 2016 at 10:00 PM


Visibility: N/A

Pressure: 29.86 "Hg

Humidity: 88%

Dew Point: 59 °F

Location of Port HedlandLocation

Past Weather in Port Hedland — Graph

°F

Port Hedland Temperature Yesterday

Maximum temperature yesterday: 88 °F (at 11:00 AM)
Minimum temperature yesterday: 66 °F (at 2:30 AM)
Average temperature yesterday: 76 °F

High & Low Weather Summary for the Past Weeks

 TemperatureHumidityPressure
High90 °F (Sep 17, 2:30 PM)94% (Sep 24, 1:30 AM)30.01 "Hg (Sep 24, 1:30 AM)
Low57 °F (Sep 21, 6:30 AM)4% (Sep 29, 11:00 AM)29.74 "Hg (Sep 19, 2:00 PM)
Average75 °F52%29.86 "Hg
* Reported Sep 15 10:00 PM — Sep 30 10:00 PM, Port Hedland, Weather by CustomWeather, © 2016

Note: Actual official high and low records may vary slightly from our data, if they occured in-between our weather recording intervals... More about our weather records

Advertising

Port Hedland Weather History for the Previous 24 Hours

Scroll right to see more
 ConditionsComfort  
Time TempWeatherWind HumidityBarometerVisibility
10:00 PM
Fri, Sep 30
63 °FOvercast.8 mph88%29.86 "HgN/A
9:30 PM61 °FMostly cloudy.9 mph94%29.86 "HgN/A
9:00 PM61 °FPassing clouds.6 mph94%29.86 "HgN/A
8:00 PM63 °FMostly cloudy.7 mph94%29.86 "Hg5 mi
7:00 PM63 °FMostly cloudy.12 mph94%29.86 "Hg4 mi
6:30 PM64 °FOvercast.8 mph83%29.86 "HgN/A
6:00 PM68 °FPartly cloudy.10 mph69%29.83 "HgN/A
5:00 PM72 °FOvercast.9 mph57%29.80 "HgN/A
4:30 PM72 °FOvercast.9 mph57%29.80 "HgN/A
4:00 PM72 °FPartly sunny.12 mph57%29.80 "HgN/A
3:00 PM72 °FLight rain. Broken clouds.8 mph65%29.80 "HgN/A
2:30 PM73 °FLight rain. Broken clouds.9 mph50%29.80 "HgN/A
2:00 PM72 °FLight rain. Broken clouds.8 mph53%29.83 "HgN/A
1:57 PM72 °FBroken clouds.7 mph53%29.83 "HgN/A
1:30 PM75 °FScattered clouds.6 mph41%29.83 "HgN/A
1:00 PM75 °FLight rain. Broken clouds.3 mph50%29.83 "HgN/A
12:30 PM77 °FLight rain. Broken clouds.2 mph42%29.83 "HgN/A
12:00 PM75 °FLight rain. Broken clouds.6 mph47%29.83 "HgN/A
11:49 AM77 °FScattered clouds.7 mph57%29.86 "HgN/A
11:00 AM77 °FScattered showers. Broken clouds.10 mph54%29.86 "HgN/A
10:30 AM77 °FSunny.9 mph51%29.86 "Hg10 mi
10:00 AM77 °FScattered showers. Partly sunny.9 mph54%29.86 "HgN/A
9:30 AM77 °FPartly sunny.9 mph47%29.86 "HgN/A
9:00 AM75 °FPartly sunny.6 mph50%29.86 "HgN/A
8:30 AM75 °FPartly sunny.6 mph50%29.86 "HgN/A
8:00 AM75 °FPartly sunny.6 mph50%29.86 "HgN/A
7:00 AM73 °FPartly sunny.5 mph53%29.86 "HgN/A
6:30 AM72 °FSunny.5 mph57%29.86 "Hg10 mi
6:00 AM72 °FMild.No wind57%29.86 "HgN/A
5:30 AM72 °FPassing clouds.3 mph57%29.83 "HgN/A
5:00 AM72 °FClear.5 mph57%29.83 "HgN/A
4:30 AM70 °FPassing clouds.7 mph60%29.80 "HgN/A
4:00 AM70 °FClear.8 mph60%29.80 "HgN/A
3:30 AM70 °FClear.7 mph60%29.80 "HgN/A
3:00 AM70 °FClear.7 mph64%29.80 "HgN/A
2:30 AM68 °FClear.7 mph69%29.80 "HgN/A
2:00 AM68 °FClear.8 mph69%29.80 "HgN/A
1:30 AM70 °FClear.8 mph69%29.80 "HgN/A
1:00 AM70 °FClear.7 mph69%29.83 "HgN/A
12:00 AM70 °FClear.7 mph69%29.83 "HgN/A
11:00 PM
Thu, Sep 29
70 °FClear.No wind73%29.86 "HgN/A
Weather by CustomWeather, © 2016

See weather overviewHow to use our weather pages